Temperature
19 19 19 19 18 18 18 18 18 18 18 18 19 19 19 19 19 19 18 18 18 18 18 18 18 17 18 17 17 17 17 17 17 17 17 17 17 17 17 17 17 16 16
19 19 19 19 19 18 18 18 18 18 18 18 19 19 19 19 18 18 18 18 18 18 18 18 18 18 18 17 17 17 17 17 17 17 17 17 17 17 17 17 17 16 16
19 19 19 19 19 18 18 18 18 18 19 19 19 19 19 18 18 18 18 18 18 18 18 18 18 18 17 17 17 17 17 17 17 17 17 17 17 17 17 17 17 16 16
19 19 19 19 19 19 19 18 18 18 18 19 19 19 19 18 18 18 18 18 18 18 18 18 18 18 17 17 17 17 17 17 17 17 17 17 17 17 17 17 17 17 17
19 19 19 19 19 19 19 18 18 18 18 19 19 18 18 18 18 18 18 18 18 18 18 18 18 17 17 17 17 17 17 17 17 17 17 17 17 17 17 17 17 17 17
19 19 19 19 19 18 19 19 19 18 18 19 19 19 19 19 19 18 18 18 18 18 18 18 18 18 17 17 17 17 17 17 17 17 17 17 17 17 17 17 17 17 17
18 19 19 19 18 18 18 18 18 18 18 19 19 19 19 19 19 19 19 18 18 18 18 18 18 18 17 17 17 17 17 17 17 17 17 17 17 17 17 17 17 17 17
18 18 19 18 18 18 18 18 18 18 18 18 18 18 18 19 19 19 19 19 18 18 18 18 18 18 18 17 17 17 17 17 17 17 17 17 17 17 17 17 17 17 17
18 18 18 18 18 18 18 18 18 18 18 18 18 18 18 18 18 19 19 18 18 18 18 18 18 18 18 17 17 17 17 17 17 17 17 17 17 17 17 17 17 17 16
18 18 18 18 18 18 18 18 18 18 18 18 18 18 18 18 18 18 18 18 18 18 18 18 18 18 18 17 17 17 17 17 17 17 17 17 17 17 17 17 17 16 16
18 18 18 18 18 18 18 17 17 17 17 17 18 18 18 18 18 18 18 18 18 18 18 18 18 18 18 17 17 17 17 17 17 17 17 17 17 17 17 17 17 16 16
18 18 18 18 18 18 17 17 17 17 17 17 17 17 17 18 18 18 18 18 18 18 18 18 18 18 17 17 17 17 17 17 17 17 17 17 17 17 16 16 16 16 16
18 18 18 18 18 17 17 17 17 17 17 17 17 17 17 17 17 17 17 17 18 18 18 18 18 18 17 17 17 17 17 17 17 17 17 17 17 17 16 16 16 16 16
18 18 18 18 17 17 17 17 17 17 17 17 17 17 17 17 17 17 17 17 17 17 18 18 18 18 17 17 17 17 17 17 17 17 17 17 17 17 16 16 16 16 16
17 17 17 17 17 17 17 17 16 16 16 17 17 17 17 17 17 17 17 17 17 17 17 17 17 17 17 17 17 17 17 17 17 17 17 17 17 16 16 16 16 16 16
18 17 17 17 17 17 17 16 16 16 16 16 16 16 16 16 16 16 16 16 16 16 16 17 17 17 17 17 17 17 17 16 16 17 17 17 17 16 16 16 16 16 16
17 17 17 17 17 17 16 16 16 16 16 16 16 16 16 16 16 16 16 16 16 16 16 16 16 16 16 16 16 16 16 16 16 16 16 16 16 16 16 16 16 16 16
17 17 17 17 16 16 16 16 16 16 15 15 15 15 15 15 15 15 15 15 15 16 16 16 16 16 16 16 16 16 16 16 16 16 16 16 16 16 16 16 16 16 16
17 17 16 16 16 16 16 16 16 15 15 15 15 15 15 15 15 15 15 15 15 15 15 15 15 16 16 16 16 16 16 16 16 16 16 16 16 16 16 16 16 15 15
16 16 16 16 16 16 16 16 15 15 15 15 15 15 15 14 14 14 14 14 14 14 15 15 15 15 15 15 15 15 15 15 15 15 15 16 16 16 16 16 16 15 15
16 16 16 15 15 15 15 15 15 15 15 14 14 14 14 14 14 14 14 14 14 14 14 14 14 14 15 15 15 15 15 15 15 15 15 15 15 15 15 15 15 15 15
16 16 15 15 15 15 15 15 15 15 14 14 14 14 14 14 14 14 14 14 14 14 14 14 14 14 14 14 14 14 14 14 14 15 15 15 15 15 15 15 15 15 15
16 15 15 15 15 15 15 15 15 14 14 14 14 14 14 14 14 14 14 14 14 13 13 13 14 14 14 14 14 14 14 14 14 14 14 14 15 15 15 15 15 15 15
15 15 15 15 15 15 14 14 14 14 14 14 14 14 13 13 13 13 13 13 13 13 13 13 13 14 14 14 14 14 14 14 14 14 14 14 14 14 14 14 15 15 15
15 15 15 15 14 14 14 14 14 14 14 14 14 13 13 13 13 13 13 13 13 13 13 13 13 14 14 14 13 13 13 13 13 14 14 14 14 14 14 14 14 14 14
15 15 15 15 14 14 14 14 14 14 13 13 13 13 13 13 13 13 13 13 13 13 13 13 13 13 13 13 13 13 13 13 13 13 14 14 13 13 13 13 13 13 14
Wind_Speed
1 1 1 1 1 1 1 1 1 1 2 2 2 2 2 3 4 5 7 11 13 14 13 12 11 11 12 12 12 12 12 12 12 13 12 12 12 12 13 13 12 12 12
1 1 1 1 1 1 0 1 2 1 2 2 2 1 1 2 3 5 7 9 13 14 13 13 12 13 13 13 13 12 12 13 12 13 12 12 12 12 13 13 13 13 13
1 1 1 1 1 0 1 1 1 1 2 1 1 1 0 1 3 5 6 8 9 12 13 13 12 13 14 14 13 13 12 12 12 12 12 12 12 13 13 14 14 13 13
2 1 1 1 1 0 0 1 1 1 1 1 1 1 0 2 2 4 5 6 7 8 11 12 12 13 15 15 14 13 12 12 12 12 12 12 12 12 13 14 14 14 14
3 2 1 2 2 1 1 2 2 2 2 2 1 1 1 2 2 3 3 5 6 8 8 11 11 12 14 14 14 14 13 12 12 12 12 12 12 12 13 13 14 14 14
2 2 2 2 2 2 3 3 3 2 2 2 3 1 1 2 2 2 3 3 4 6 7 8 9 10 13 13 13 14 14 13 13 12 12 12 12 12 12 13 13 14 15
3 2 3 3 3 2 2 2 2 3 3 2 1 1 1 2 2 2 2 3 4 5 6 7 8 8 9 11 11 12 13 13 13 13 13 13 13 13 13 14 14 14 14
2 3 3 3 3 2 3 3 2 3 3 2 1 1 1 1 1 3 4 3 4 4 5 7 7 7 7 8 9 12 12 13 13 14 14 14 13 13 14 14 14 14 14
2 2 2 2 2 2 2 2 2 2 3 3 1 1 1 1 1 1 2 2 2 2 3 4 6 7 8 9 9 12 13 13 14 14 14 14 13 14 14 13 14 14 14
1 1 2 2 2 2 2 2 2 2 3 3 2 2 1 1 0 1 1 1 2 2 3 3 4 6 8 8 9 11 13 13 14 13 14 14 14 14 14 13 14 14 14
1 1 1 1 2 2 2 3 3 3 2 3 3 3 3 2 2 1 2 2 1 1 2 2 2 3 6 8 9 11 13 14 14 13 12 13 14 14 15 15 15 14 15
1 2 2 2 2 2 3 3 2 3 3 3 3 3 2 2 2 1 2 3 2 2 2 2 2 3 4 6 9 11 14 15 15 14 13 13 13 14 16 16 15 15 15
1 2 2 2 2 2 2 3 2 3 3 3 3 3 3 2 2 2 2 3 2 2 2 2 2 3 4 4 6 10 12 14 15 14 14 13 13 13 15 15 15 16 15
1 1 1 1 2 2 3 3 2 2 2 3 3 3 3 3 2 2 2 2 3 3 2 3 1 1 1 4 6 8 8 12 14 14 15 14 14 13 14 14 14 14 15
1 2 1 1 1 1 2 2 2 2 2 3 3 3 3 3 3 3 2 2 2 3 4 2 1 1 1 3 6 6 5 10 14 14 15 15 15 15 14 14 13 13 13
2 1 1 1 1 1 2 3 2 2 3 3 3 3 3 4 3 3 3 3 2 3 3 3 3 1 1 2 4 4 5 9 14 14 15 16 16 15 14 15 14 14 14
1 1 2 2 1 2 2 2 3 2 2 3 3 3 3 4 4 4 4 3 3 3 4 4 3 2 2 2 1 4 4 6 8 13 15 15 16 16 16 16 15 15 16
1 1 1 2 2 2 2 3 4 4 3 3 3 3 4 4 4 4 4 4 4 4 4 5 4 3 3 3 3 3 4 5 6 11 15 15 16 16 16 17 17 17 17
0 1 1 1 2 2 3 3 3 3 3 3 3 2 3 4 4 4 5 5 5 5 4 4 5 4 3 3 2 4 5 4 5 7 12 14 15 15 16 17 17 17 17
0 1 1 1 2 2 3 4 4 4 3 4 3 2 2 2 3 4 4 4 5 5 5 5 5 4 3 3 2 3 4 3 4 4 5 8 12 14 15 16 17 17 17
1 0 1 1 2 1 3 4 5 4 4 4 4 3 3 2 3 3 4 4 5 4 5 5 5 5 4 3 2 3 4 3 4 3 2 3 4 6 9 13 16 17 17
1 1 1 1 2 3 4 5 5 5 4 4 4 4 5 2 4 5 6 6 5 5 5 5 5 5 5 4 3 4 4 4 4 3 2 4 3 4 5 7 13 17 17
1 1 1 1 1 2 4 5 6 5 5 5 4 4 5 5 4 4 6 7 7 8 7 6 7 7 6 5 4 4 4 5 6 4 3 5 3 4 4 6 11 15 16
2 2 2 2 1 2 3 5 6 5 5 4 4 4 4 4 6 5 6 6 6 6 7 6 6 7 7 5 5 5 5 6 6 5 3 4 3 3 3 3 8 12 14
2 2 2 2 2 2 3 4 5 5 4 4 4 3 4 4 6 6 5 6 7 6 7 8 7 8 8 8 6 4 4 4 5 4 2 2 3 2 2 2 3 9 11
3 3 2 2 2 2 2 3 4 4 5 5 3 3 3 3 5 5 5 6 7 7 8 8 6 6 6 6 6 5 4 4 4 4 2 2 2 1 2 2 1 3 5
Wind_Direction
40 49 0 307 239 221 206 250 276 279 290 269 246 242 200 176 175 158 164 177 179 183 186 189 191 196 197 197 199 199 201 202 201 200 201 203 203 201 200 199 202 203 205
32 30 339 323 307 262 242 259 248 245 256 280 280 269 257 154 170 159 158 177 182 185 189 192 195 199 199 199 200 201 203 205 204 202 204 206 205 204 205 205 205 204 206
6 353 333 309 313 293 231 254 270 273 260 267 277 274 235 143 155 162 163 174 180 191 195 194 199 200 198 200 201 202 203 204 206 205 205 206 208 208 207 208 207 207 208
357 353 14 359 325 319 338 291 317 297 311 319 290 286 110 112 133 154 163 173 179 186 194 199 201 199 197 200 202 203 204 204 205 207 207 208 210 208 206 207 208 210 210
9 351 27 4 319 19 6 335 18 336 328 327 281 208 170 144 173 175 164 172 178 179 179 191 199 201 198 200 202 203 205 205 205 206 208 209 210 210 208 208 209 210 209
14 1 0 5 343 25 22 13 6 335 308 303 296 298 185 152 181 169 177 175 181 182 179 181 185 201 202 202 201 203 204 206 207 209 211 212 212 211 210 209 210 209 209
10 17 9 0 1 30 20 360 354 331 322 310 312 314 267 178 170 200 190 182 191 185 177 174 176 185 189 195 197 201 205 207 208 212 213 215 216 215 213 213 212 211 209
5 16 25 354 10 20 13 0 353 335 323 332 317 326 331 310 252 210 190 192 197 187 183 178 171 176 176 178 191 201 208 210 212 215 217 217 218 218 216 214 210 207 205
53 6 8 4 355 19 13 333 357 332 324 321 345 344 327 343 305 246 199 182 182 182 191 173 176 177 184 179 182 199 207 210 215 218 217 218 219 219 215 210 206 204 204
65 35 20 359 343 358 4 336 5 326 318 323 323 305 301 313 279 289 284 199 212 204 203 197 178 177 185 178 179 184 197 206 211 215 216 216 217 216 211 210 210 209 206
65 44 61 360 351 3 358 355 358 338 335 341 334 325 335 332 303 274 300 306 280 230 205 199 184 182 187 182 181 186 192 201 206 212 216 218 220 220 214 213 213 212 210
47 30 44 24 16 2 2 354 337 345 351 348 340 336 341 340 330 322 305 301 294 272 241 197 191 201 202 183 189 189 194 199 203 207 213 218 221 222 216 216 216 216 215
62 34 36 27 16 7 356 341 343 345 349 333 330 331 328 319 320 315 309 309 312 295 280 240 201 200 209 166 173 189 195 199 203 207 212 215 219 222 220 218 218 217 216
76 64 60 30 15 2 354 343 348 344 343 325 324 330 320 318 317 314 305 313 315 303 283 274 241 194 159 156 172 186 194 199 204 209 212 215 218 220 218 214 213 213 213
26 62 71 46 352 359 347 337 343 347 335 324 320 328 326 316 322 323 308 285 280 302 300 291 300 247 191 168 174 189 191 208 211 211 212 213 216 216 215 212 211 212 213
8 16 20 1 346 2 3 336 329 335 334 331 319 332 326 323 327 322 317 307 288 283 290 301 288 273 293 269 186 196 206 219 216 211 213 213 214 211 213 213 210 212 214
353 5 351 334 336 343 342 329 324 330 328 325 325 338 329 314 328 324 321 319 310 300 290 292 287 289 264 266 232 225 219 216 213 214 214 213 210 209 212 212 210 211 214
337 358 341 331 324 348 341 327 320 326 321 320 319 329 327 321 328 321 319 311 304 294 286 292 294 286 278 260 230 244 256 244 223 219 212 211 211 211 214 214 213 214 216
314 342 320 329 334 339 328 320 313 306 306 309 315 320 322 323 326 321 314 312 306 304 295 290 289 278 276 276 262 257 262 262 244 228 212 212 213 214 217 218 217 218 219
248 288 313 331 328 344 340 331 319 306 304 303 302 300 299 307 309 308 305 309 307 307 303 296 289 288 284 289 284 277 277 271 273 258 223 215 216 220 222 221 220 220 220
275 298 318 312 309 314 335 334 315 307 309 305 307 306 293 283 306 303 305 311 305 301 300 295 293 298 297 298 283 278 277 276 267 261 246 232 218 221 225 227 223 219 218
307 311 262 273 308 322 345 348 329 314 306 299 299 300 287 282 293 288 297 297 291 287 292 291 290 287 286 288 284 280 286 286 277 255 247 261 239 233 228 217 216 211 213
292 290 287 276 293 331 327 330 322 302 295 298 303 304 302 314 319 307 288 279 281 280 274 275 281 284 286 289 289 287 290 294 280 264 253 261 246 242 243 226 210 207 207
300 282 273 281 296 318 324 321 313 287 289 293 299 298 303 310 317 319 303 295 285 281 272 266 269 277 283 287 278 273 272 275 273 263 235 246 253 250 253 221 208 203 205
300 290 275 269 277 305 317 319 315 292 295 297 293 303 308 304 310 313 302 299 297 290 286 281 268 266 273 285 285 287 286 286 285 278 256 242 259 275 261 256 218 197 196
289 288 289 283 276 277 267 298 305 299 301 301 297 290 306 315 317 322 304 298 298 300 302 300 289 273 268 270 267 256 267 279 288 283 294 281 257 277 279 263 247 199 207
Height
1515 1515 1515 1514 1514 1513 1513 1513 1513 1512 1512 1512 1512 1512 1512 1511 1511 1512 1512 1514 1515 1516 1518 1520 1521 1522 1524 1525 1527 1529 1531 1533 1535 1536 1538 1539 1540 1542 1544 1545 1547 1548 1550
1515 1515 1515 1514 1514 1514 1513 1513 1512 1512 1512 1512 1511 1511 1511 1510 1510 1510 1510 1512 1513 1515 1516 1517 1518 1520 1521 1523 1525 1527 1529 1531 1532 1534 1535 1537 1538 1539 1541 1542 1544 1545 1546
1515 1515 1515 1514 1514 1514 1513 1513 1512 1512 1511 1511 1510 1510 1509 1508 1507 1508 1509 1510 1512 1513 1514 1515 1516 1516 1518 1520 1522 1525 1527 1528 1530 1532 1533 1534 1535 1537 1538 1539 1541 1542 1543
1515 1515 1515 1514 1514 1513 1513 1512 1512 1511 1511 1510 1510 1509 1509 1508 1507 1508 1508 1509 1510 1511 1512 1513 1513 1512 1515 1518 1520 1522 1524 1526 1528 1529 1531 1532 1533 1534 1535 1536 1537 1539 1541
1515 1515 1515 1514 1514 1513 1513 1512 1512 1511 1510 1510 1509 1508 1508 1508 1508 1508 1508 1509 1509 1510 1511 1512 1512 1512 1514 1516 1518 1520 1522 1524 1525 1527 1528 1529 1530 1531 1532 1533 1534 1536 1537
1515 1515 1514 1514 1514 1513 1512 1512 1511 1511 1510 1510 1509 1509 1508 1508 1507 1508 1508 1509 1509 1509 1510 1510 1510 1511 1513 1514 1516 1518 1519 1521 1522 1524 1525 1526 1527 1528 1529 1529 1530 1532 1534
1515 1515 1514 1514 1513 1513 1512 1511 1511 1511 1510 1510 1509 1508 1508 1508 1507 1507 1508 1508 1509 1509 1509 1510 1510 1511 1511 1512 1514 1515 1517 1518 1519 1520 1522 1523 1523 1524 1525 1525 1526 1528 1530
1515 1515 1514 1513 1513 1512 1512 1511 1511 1510 1510 1510 1510 1509 1509 1509 1508 1508 1507 1508 1508 1509 1509 1509 1509 1510 1510 1510 1511 1513 1514 1515 1516 1517 1518 1519 1520 1521 1521 1521 1522 1524 1526
1515 1514 1514 1513 1513 1512 1512 1511 1511 1510 1510 1510 1510 1510 1509 1509 1508 1508 1507 1507 1507 1508 1508 1508 1508 1508 1508 1509 1509 1510 1511 1512 1513 1514 1515 1516 1517 1518 1518 1518 1519 1521 1523
1514 1514 1514 1513 1512 1512 1512 1511 1511 1511 1510 1509 1509 1509 1510 1509 1509 1508 1508 1507 1507 1506 1506 1507 1507 1507 1507 1506 1507 1508 1509 1509 1510 1511 1512 1512 1513 1515 1516 1516 1517 1519 1520
1514 1514 1513 1513 1512 1512 1511 1511 1510 1510 1510 1509 1509 1509 1509 1508 1508 1508 1507 1506 1506 1505 1505 1504 1505 1505 1505 1505 1505 1505 1506 1507 1507 1508 1508 1509 1510 1511 1513 1513 1515 1516 1518
1514 1514 1513 1512 1512 1511 1511 1510 1510 1509 1509 1508 1508 1508 1508 1507 1507 1507 1506 1505 1504 1504 1504 1503 1503 1502 1503 1503 1503 1503 1504 1504 1504 1505 1505 1505 1506 1507 1509 1510 1512 1513 1515
1514 1513 1513 1512 1511 1511 1510 1510 1509 1509 1508 1508 1507 1507 1507 1507 1506 1506 1505 1504 1503 1503 1502 1502 1501 1500 1500 1500 1500 1501 1501 1501 1501 1501 1502 1502 1503 1504 1505 1506 1508 1510 1511
1513 1513 1512 1511 1510 1510 1510 1509 1509 1508 1507 1507 1507 1506 1505 1505 1505 1505 1504 1504 1502 1501 1500 1500 1500 1499 1498 1497 1497 1498 1498 1498 1498 1498 1498 1499 1499 1500 1501 1502 1504 1506 1507
1513 1512 1511 1510 1510 1509 1508 1508 1507 1507 1506 1506 1505 1505 1504 1504 1503 1503 1503 1503 1502 1500 1499 1498 1498 1497 1497 1495 1495 1495 1495 1495 1495 1495 1495 1495 1495 1495 1496 1498 1500 1502 1503
1511 1510 1510 1509 1509 1508 1507 1506 1506 1505 1505 1504 1504 1503 1502 1502 1502 1501 1501 1500 1500 1499 1497 1496 1496 1495 1494 1494 1493 1492 1492 1491 1491 1492 1492 1491 1491 1492 1493 1494 1496 1497 1499
1509 1509 1508 1508 1507 1506 1506 1505 1504 1504 1503 1502 1502 1501 1501 1500 1500 1499 1499 1498 1497 1497 1495 1494 1493 1493 1492 1491 1490 1489 1488 1488 1487 1488 1488 1488 1488 1488 1489 1491 1492 1493 1495
1508 1507 1507 1506 1506 1505 1504 1503 1502 1502 1501 1500 1500 1499 1499 1498 1497 1497 1496 1495 1495 1494 1493 1491 1490 1489 1488 1488 1487 1486 1485 1484 1484 1484 1484 1484 1484 1484 1485 1487 1488 1489 1490
1506 1505 1505 1505 1504 1503 1503 1502 1501 1500 1499 1499 1498 1497 1496 1496 1495 1494 1493 1492 1492 1491 1490 1489 1487 1487 1485 1485 1483 1483 1483 1482 1481 1480 1480 1480 1480 1481 1481 1482 1483 1484 1486
1504 1504 1503 1503 1502 1502 1501 1500 1499 1498 1497 1497 1496 1495 1494 1493 1492 1491 1490 1490 1489 1488 1487 1486 1485 1483 1482 1481 1480 1479 1479 1479 1478 1478 1477 1476 1476 1476 1477 1478 1478 1479 1481
1503 1502 1502 1501 1501 1500 1499 1498 1497 1496 1495 1494 1494 1493 1492 1491 1490 1489 1488 1487 1486 1484 1484 1483 1482 1480 1479 1478 1478 1477 1476 1475 1475 1474 1473 1472 1472 1472 1472 1472 1473 1474 1475
1501 1501 1500 1500 1499 1498 1497 1496 1495 1494 1493 1492 1491 1490 1489 1488 1486 1485 1484 1483 1483 1482 1480 1479 1478 1477 1476 1476 1475 1474 1474 1472 1470 1471 1470 1469 1468 1467 1467 1468 1468 1469 1470
1499 1499 1498 1498 1497 1496 1495 1495 1493 1492 1490 1489 1488 1487 1486 1485 1483 1482 1481 1480 1479 1478 1477 1476 1474 1473 1472 1472 1472 1471 1470 1469 1468 1467 1466 1464 1464 1463 1463 1463 1463 1464 1465
1497 1497 1496 1495 1494 1493 1493 1492 1491 1489 1488 1487 1485 1484 1483 1481 1480 1479 1477 1475 1474 1473 1472 1471 1470 1469 1468 1468 1467 1467 1466 1465 1464 1463 1463 1461 1460 1460 1460 1459 1459 1460 1460
1495 1495 1494 1493 1492 1491 1490 1489 1488 1486 1485 1484 1482 1481 1480 1478 1477 1475 1473 1471 1470 1469 1468 1467 1466 1464 1464 1463 1463 1463 1462 1462 1460 1460 1460 1458 1457 1457 1457 1456 1456 1456 1456
1493 1492 1491 1490 1489 1488 1487 1486 1485 1484 1482 1481 1479 1478 1476 1474 1473 1472 1470 1468 1466 1465 1464 1462 1461 1460 1459 1459 1459 1459 1458 1458 1457 1456 1456 1455 1454 1454 1453 1453 1452 1452 1452